User: anonymous   Login
Location: Caltech
(34.1382°N, 118.1253°W)
Time: 21:22:18
(UTC-07:00)
Language:

Meteor 1-11 Rocket - Orbit

View from above orbital plane
View from above orbital plane
View from above satellite
View from above satellite

Ground track
Ground track

The orbit data is extracted from the following two-line orbital elements,

1 05918U 72022B   15216.52272382  .00000131  00000-0  71330-4 0  9995
2 05918 081.2360 266.2419 0059402 085.1757 275.6191 14.05775648222080
Epoch (UTC): 04 August 2015 12:32:43
Eccentricity: 0.0059402
inclination: 81.2360°
perigee height: 831 km
apogee height: 917 km
right ascension of ascending node: 266.2419°
argument of perigee: 85.1757°
revolutions per day: 14.05775648
mean anomaly at epoch: 275.6191°
orbit number at epoch: 22208

The dashed part of the orbit path shows where the satellite is in the earth's shadow,  

DLR